Regional Weather Roundup
Issued by NWS Portland, ME

Home | Current Version | Previous Version | Text Only | Print | Product List | Glossary On
Versions: 1 2 3 4 5 6 7 8 9 10 11 12 13 14 15 16 17 18 19 20 21 22 23 24 25 26 27 28 29 30 31 32 33 34 35 36 37 38 39 40 41 42 43 44 45 46 47 48 49 50
000
ASUS41 KGYX 300810
RWRGYX
WEATHER ROUNDUP FOR MAINE AND NEW HAMPSHIRE
NATIONAL WEATHER SERVICE GRAY ME
400 AM EDT SUN AUG 30 2015

MEZ002-005-006-010-012-015-018-020-021-024-026-027-029-300900-
MAINE

CITY           SKY/WX    TMP DP  RH WIND       PRES   REMARKS
PORTLAND       CLOUDY    65  61  87 CALM      30.03S
SANFORD        CLOUDY    61  55  82 CALM      30.05S
BAR HARBOR     CLOUDY    63  63 100 CALM      30.03R
WISCASSET      CLOUDY    62  59  90 CALM      30.04F
ROCKLAND       CLOUDY    61  59  94 CALM      30.02S
FRYEBURG       CLOUDY    61  60  97 CALM      30.05R
LEWISTONAUBURN CLOUDY    61 N/A N/A CALM      30.03S
AUGUSTA        CLOUDY    63  60  90 CALM      30.04S
WATERVILLE     CLOUDY    61  57  88 CALM      30.01S
BANGOR         CLOUDY    62  59  90 SW3       30.03S
GREENVILLE       N/A     61  55  81 CALM      30.02S
MILLINOCKET    CLOUDY    62  59  90 CALM      30.01F
HOULTON        CLOUDY    61  57  87 S3        29.98F
PRESQUE ISLE   CLOUDY    61  55  82 SW3       29.98S
FRENCHVILLE    CLOUDY    61  57  87 SW5       29.95F
CARIBOU        LGT RAIN  61  58  90 SW6       29.97S
$$

NHZ002-005-008-009-011-012-014-300900-
NEW HAMPSHIRE

CITY           SKY/WX    TMP DP  RH WIND       PRES   REMARKS
PORTSMOUTH     CLOUDY    65  59  80 W7        30.03F
ROCHESTER      CLOUDY    64  59  83 CALM      30.04S
NASHUA         PTCLDY    61  58  90 S3        30.06S
MANCHESTER     MOCLDY    65  57  75 CALM      30.04S
CONCORD        MOCLDY    62  58  86 CALM      30.05F
LACONIA        CLOUDY    66  57  72 SW3       30.05S
PLYMOUTH       FAIR      59  58  96 CALM      30.06S FOG
BERLIN         CLOUDY    56  54  93 CALM      30.07S
WHITEFIELD     CLOUDY    59  56  89 CALM      30.08R
JAFFREY        PTCLDY    58  57  97 CALM      30.10R
KEENE          CLOUDY    57  54  88 CALM      30.09R
LEBANON        PTCLDY    59  56  89 CALM      30.06S
MT WASHINGTON  PTCLDY    46  45  93 W31         N/A
$$

VTZ005-007-008-300900-
VERMONT

CITY           SKY/WX    TMP DP  RH WIND       PRES   REMARKS
ST JOHNSBURY     N/A     62  59  90 MISG      30.06R
MONTPELIER     CLOUDY    60  58  92 CALM      30.11S
BURLINGTON     CLOUDY    64  60  87 E3        30.05S
$$

MAZ007-012-024-CTZ003-RIZ002-NYZ038-NYZ072-300900-
SOUTHERN NEW ENGLAND AND NY

CITY           SKY/WX    TMP DP  RH WIND       PRES   REMARKS
BOSTON         MOCLDY    70  60  70 SW13      30.06S
WORCESTER      CLEAR     63  58  83 W9        30.09F
NANTUCKET      PTCLDY    68  64  87 W7        30.10S
PROVIDENCE     CLEAR     68  63  84 W5        30.08F
HARTFORD       PTCLDY    66  61  84 S3        30.06F
ALBANY         MOCLDY    63  58  83 CALM      30.07S
NEW YORK CITY  MOCLDY    74  61  63 SW5       30.07F
$$

ANZ081-ANZ082-ANZ150-NHZ014-MEZ023>029-300900-
COASTAL MARINE OBSERVATIONS

STATION/POSITION TIME  TEMP    WIND        PRES    WAVE
                       AIR SEA DIR/SP/G            HT/PER
                 (UTC) (F)     (DEG/KT/KT) (MB)    (FT/S)
MOUNT DESERT ROC 0800   60     230/ 11/ 12 1017.1F
MATINICUS ROCK   0800   62     290/  8/  8 1016.6F
ISLE OF SHOALS   0800   67     250/  9/ 10 1016.8F
JEFFREYS LEDGE   0703      69                N/A     3/10
CASHES LEDGE BUO 0750   69                 1017.0F   4/10
GEORGES BANK BUO 0750   71 69  310/  4/  4 1019.3F   3/10
$$

.............KEY..............
   WCI - WIND CHILL
   TC  - TEMPERATURE IN CELSIUS
   VSB - VISIBILITY IN MILES
   HX  - HEAT INDEX
   FAIR- INDICATES FEW OR NO CLOUDS BELOW 12,000 FT, WITH NO
         SIGNIFICANT WEATHER AND/OR OBSTRUCTIONS TO VISIBILITY.




USA.gov is the U.S. government's official web portal to all federal, state and local government web resources and services.